Date String (YYYY-MM-DD hh:mm:ss) UTC,Instrument flags,absolute air pressure of the measurement (hPa),sample flow rate (lpm),inlet stack bypass flow (lpm),air temperature of the measurement (°C),ambient temperature measured by the external sensor (°C),aerosol sample conditioner tube jacket temperature (°C),OPC LED temperature (°C),internal box temperature (°C),relative humidity of the measurement (%),span deviation,mass concentration of particles derived from Lorenz-Mie calculation of OPC scattering (μg/m³),mass concentration of particles derived from Lorenz-Mie calculation of OPC scattering (μg/m³),mass concentration of particles derived from Lorenz-Mie calculation of OPC scattering (μg/m³)
DateTimeUTC,F1_M11,P_M11,Q1_M11,Q2_M11,T1_M11,T2_M11,T3_M11,T4_M11,T5_M11,U1_M11,ZSPAN_M11,X0_M11,X2_M11,X1_M11
2023-12-30 13:00:00,SystemResetWarning,0830.6,5.00,000.00,020.7,019.6,000.0,029.0,022.0,9.1,0000.0,0009.22,0004.05,0003.65
2023-12-30 13:01:00,SystemResetWarning,0830.7,5.00,000.00,020.7,019.7,000.0,029.0,022.0,9.1,0000.0,0008.79,0004.03,0003.62
2023-12-30 13:02:00,SystemResetWarning,0830.7,5.00,000.00,020.7,019.7,000.0,029.0,022.0,9.1,0000.0,0008.59,0004.02,0003.61
2023-12-30 13:03:00,SystemResetWarning,0830.7,5.00,000.00,020.7,019.6,000.0,029.0,022.0,9.2,0000.0,0008.56,0004.05,0003.61
2023-12-30 13:04:00,SystemResetWarning,0830.7,5.01,000.00,020.7,019.6,000.0,029.0,022.0,9.3,0000.0,0008.47,0004.05,0003.59
2023-12-30 13:05:00,SystemResetWarning,0830.8,5.01,000.00,020.7,019.6,000.0,029.0,022.0,9.4,0000.0,0008.39,0004.04,0003.59
2023-12-30 13:06:00,SystemResetWarning,0830.8,5.00,000.00,020.7,019.7,000.0,029.0,022.0,9.4,0000.0,0008.38,0004.03,0003.58
2023-12-30 13:07:00,SystemResetWarning,0830.8,5.00,000.00,020.7,019.7,000.0,029.0,022.0,9.4,0000.0,0008.34,0003.99,0003.56
2023-12-30 13:08:00,SystemResetWarning,0830.7,5.00,000.00,020.7,019.7,000.0,029.0,022.0,9.4,0000.0,0007.54,0003.93,0003.54
2023-12-30 13:09:00,SystemResetWarning,0830.7,5.00,000.00,020.7,019.7,000.0,029.0,022.0,9.4,0000.0,0007.40,0003.91,0003.53
2023-12-30 13:10:00,SystemResetWarning,0830.7,5.00,000.00,020.7,019.7,000.0,029.0,022.0,9.4,0000.0,0007.33,0003.89,0003.53
2023-12-30 13:11:00,SystemResetWarning,0830.7,4.99,000.00,020.7,019.7,000.0,029.0,022.0,9.4,0000.0,0007.33,0003.88,0003.53
2023-12-30 13:12:00,SystemResetWarning,0830.7,5.00,000.00,020.7,019.7,000.0,029.0,022.0,9.4,0000.0,0007.72,0003.87,0003.53
2023-12-30 13:13:00,SystemResetWarning,0830.7,4.99,000.00,020.7,019.7,000.0,029.0,022.0,9.4,0000.0,0007.86,0003.87,0003.53
2023-12-30 13:14:00,SystemResetWarning,0830.7,5.00,000.00,020.7,019.7,000.0,029.0,022.0,9.4,0000.0,0007.51,0003.84,0003.52
2023-12-30 13:15:00,SystemResetWarning,0830.7,4.99,000.00,020.7,019.7,000.0,029.0,022.0,9.4,0000.0,0007.38,0003.81,0003.50
2023-12-30 13:16:00,SystemResetWarning,0830.7,5.00,000.00,020.7,019.7,000.0,029.0,022.0,9.3,0000.0,0007.36,0003.78,0003.49
2023-12-30 13:17:00,SystemResetWarning,0830.8,4.99,000.00,020.7,019.7,000.0,029.0,022.0,9.3,0000.0,0007.36,0003.77,0003.47
2023-12-30 13:18:00,SystemResetWarning,0830.8,5.00,000.00,020.7,019.7,000.0,029.0,022.0,9.3,0000.0,0007.15,0003.74,0003.47
2023-12-30 13:19:00,SystemResetWarning,0830.8,5.00,000.00,020.7,019.7,000.0,029.0,022.0,9.3,0000.0,0007.21,0003.77,0003.48
2023-12-30 13:20:00,SystemResetWarning,0830.8,5.00,000.00,020.7,019.8,000.0,029.0,022.0,9.3,0000.0,0007.53,0003.81,0003.50
2023-12-30 13:21:00,SystemResetWarning,0830.8,5.01,000.00,020.7,019.7,000.0,029.0,022.0,9.3,0000.0,0008.30,0003.86,0003.52
2023-12-30 13:22:00,SystemResetWarning,0830.8,5.00,000.00,020.7,019.7,000.0,029.0,022.0,9.3,0000.0,0008.54,0003.88,0003.54
2023-12-30 13:23:00,SystemResetWarning,0830.8,5.00,000.00,020.7,019.7,000.0,029.0,022.0,9.3,0000.0,0008.12,0003.91,0003.54
2023-12-30 13:24:00,SystemResetWarning,0830.8,5.00,000.00,020.7,019.7,000.0,029.0,022.0,9.3,0000.0,0007.99,0003.94,0003.55
2023-12-30 13:25:00,SystemResetWarning,0830.8,5.00,000.00,020.6,019.7,000.0,029.0,022.0,9.3,0000.0,0008.06,0003.96,0003.56
2023-12-30 13:26:00,SystemResetWarning,0830.8,5.00,000.00,020.6,019.6,000.0,029.0,022.0,9.3,0000.0,0008.14,0004.01,0003.59
2023-12-30 13:27:00,SystemResetWarning,0830.8,5.00,000.00,020.6,019.6,000.0,029.0,022.0,9.3,0000.0,0008.35,0004.04,0003.61
2023-12-30 13:28:00,SystemResetWarning,0830.8,5.00,000.00,020.6,019.6,000.0,029.0,022.0,9.3,0000.0,0008.63,0004.05,0003.63
2023-12-30 13:29:00,SystemResetWarning,0830.8,5.00,000.00,020.6,019.6,000.0,029.0,021.9,9.2,0000.0,0008.90,0004.10,0003.65
2023-12-30 13:30:00,SystemResetWarning,0830.8,5.00,000.00,020.6,019.6,000.0,029.0,021.9,9.2,0000.0,0008.87,0004.11,0003.65
2023-12-30 13:31:00,SystemResetWarning,0830.9,5.01,000.00,020.6,019.5,000.0,028.9,021.9,9.2,0000.0,0008.65,0004.11,0003.63
2023-12-30 13:32:00,SystemResetWarning,0830.8,5.00,000.00,020.6,019.5,000.0,028.9,021.9,9.2,0000.0,0008.53,0004.08,0003.62
2023-12-30 13:33:00,SystemResetWarning,0830.8,5.00,000.00,020.6,019.5,000.0,028.9,021.9,9.2,0000.0,0008.35,0004.06,0003.61
2023-12-30 13:34:00,SystemResetWarning,0830.8,4.99,000.00,020.6,019.5,000.0,028.9,021.9,9.2,0000.0,0008.72,0004.04,0003.61
2023-12-30 13:35:00,SystemResetWarning,0830.8,5.00,000.00,020.6,019.5,000.0,028.9,021.9,9.2,0000.0,0008.67,0004.00,0003.59
2023-12-30 13:36:00,SystemResetWarning,0830.8,5.00,000.00,020.6,019.4,000.0,028.9,021.9,9.2,0000.0,0008.68,0003.99,0003.58
2023-12-30 13:37:00,SystemResetWarning,0830.8,5.00,000.00,020.6,019.4,000.0,028.9,021.9,9.2,0000.0,0008.56,0003.96,0003.57
2023-12-30 13:38:00,SystemResetWarning,0830.8,5.00,000.00,020.5,019.4,000.0,028.9,021.8,9.2,0000.0,0008.30,0003.91,0003.55
2023-12-30 13:39:00,SystemResetWarning,0830.8,5.00,000.00,020.5,019.4,000.0,028.9,021.8,9.2,0000.0,0008.06,0003.90,0003.54
2023-12-30 13:40:00,SystemResetWarning,0830.8,5.00,000.00,020.5,019.4,000.0,028.9,021.8,9.2,0000.0,0007.76,0003.87,0003.53
2023-12-30 13:41:00,SystemResetWarning,0830.8,5.00,000.00,020.5,019.4,000.0,028.9,021.8,9.2,0000.0,0007.66,0003.83,0003.51
2023-12-30 13:42:00,SystemResetWarning,0830.7,5.00,000.00,020.5,019.4,000.0,028.9,021.8,9.2,0000.0,0007.57,0003.78,0003.49
2023-12-30 13:43:00,SystemResetWarning,0830.7,5.00,000.00,020.5,019.4,000.0,028.9,021.8,9.2,0000.0,0006.93,0003.76,0003.47
2023-12-30 13:44:00,SystemResetWarning,0830.7,4.99,000.00,020.5,019.4,000.0,028.9,021.8,9.2,0000.0,0007.09,0003.76,0003.45
2023-12-30 13:45:00,SystemResetWarning,0830.7,5.00,000.00,020.5,019.4,000.0,028.9,021.8,9.2,0000.0,0006.40,0003.72,0003.43
2023-12-30 13:46:00,SystemResetWarning,0830.8,5.00,000.00,020.5,019.4,000.0,028.8,021.8,9.2,0000.0,0006.11,0003.68,0003.40
2023-12-30 13:47:00,SystemResetWarning,0830.8,5.00,000.00,020.5,019.3,000.0,028.8,021.7,9.2,0000.0,0005.92,0003.64,0003.37
2023-12-30 13:48:00,SystemResetWarning,0830.8,5.00,000.00,020.4,019.3,000.0,028.8,021.7,9.2,0000.0,0005.86,0003.62,0003.35
2023-12-30 13:49:00,SystemResetWarning,0830.8,5.00,000.00,020.4,019.3,000.0,028.8,021.7,9.3,0000.0,0005.94,0003.61,0003.33
2023-12-30 13:50:00,SystemResetWarning,0830.7,5.00,000.00,020.4,019.3,000.0,028.8,021.7,9.3,0000.0,0005.92,0003.59,0003.31
2023-12-30 13:51:00,SystemResetWarning,0830.7,5.01,000.00,020.4,019.3,000.0,028.8,021.7,9.3,0000.0,0005.98,0003.55,0003.28
2023-12-30 13:52:00,SystemResetWarning,0830.7,5.00,000.00,020.4,019.3,000.0,028.8,021.7,9.3,0000.0,0006.28,0003.53,0003.26
2023-12-30 13:53:00,SystemResetWarning,0830.8,5.00,000.00,020.4,019.3,000.0,028.8,021.7,9.3,0000.0,0006.10,0003.50,0003.23
2023-12-30 13:54:00,SystemResetWarning,0830.7,5.00,000.00,020.4,019.2,000.0,028.8,021.7,9.3,0000.0,0005.89,0003.46,0003.21
2023-12-30 13:55:00,SystemResetWarning,0830.7,5.00,000.00,020.4,019.2,000.0,028.8,021.7,9.4,0000.0,0005.60,0003.43,0003.19
2023-12-30 13:56:00,SystemResetWarning,0830.7,5.00,000.00,020.3,019.2,000.0,028.8,021.6,9.3,0000.0,0005.00,0003.39,0003.17
2023-12-30 13:57:00,SystemResetWarning,0830.7,5.00,000.00,020.3,019.2,000.0,028.8,021.6,9.3,0000.0,0005.07,0003.39,0003.17
2023-12-30 13:58:00,SystemResetWarning,0830.7,5.00,000.00,020.3,019.2,000.0,028.7,021.6,9.3,0000.0,0005.11,0003.41,0003.18
2023-12-30 13:59:00,SystemResetWarning,0830.7,5.00,000.00,020.3,019.2,000.0,028.7,021.7,9.3,0000.0,0005.07,0003.39,0003.16
